Location: Manitoulin Island
(45.7026°N, 82.0372°W)
Time: 10:53:37
(UTC-05:00)

ISS - Visible Passes

Search period start: 19 February 2018 00:00
Search period end: 01 March 2018 00:00
Orbit: 403 x 407 km, 51.6° (Epoch: 20 February)

Date Brightness Start Highest point End Pass type
(mag) Time Alt. Az. Time Alt. Az. Time Alt. Az.
24 Feb -0.7 06:43:44 10° SSE 06:45:20 13° SE 06:46:57 10° ESE visible
26 Feb -1.7 06:34:09 10° SSW 06:36:59 27° SE 06:39:50 10° E visible
27 Feb -1.0 05:42:48 10° S 05:44:54 16° SE 05:46:59 10° E visible
28 Feb -3.3 06:25:29 10° SW 06:28:43 58° SE 06:31:58 10° ENE visible
